Regional Weather Roundup
Issued by NWS

Home | Current Version | Previous Version | Graphics & Text | Print | Product List | Glossary On
Versions: 1 2 3 4 5 6 7 8 9 10 11 12 13 14 15 16 17 18 19 20 21 22 23 24 25 26 27 28 29 30 31 32 33 34 35 36 37 38 39 40 41 42 43 44 45 46 47 48 49 50
000
ASUS43 KLOT 201000
RWRIL

ILLINOIS REGIONAL WEATHER ROUNDUP
NATIONAL WEATHER SERVICE CHICAGO/ROMEOVILLE IL
400 AM CST SAT DEC 20 2014

NOTE: "FAIR" INDICATES FEW OR NO CLOUDS BELOW 12,000 FEET WITH NO
SIGNIFICANT WEATHER AND/OR OBSTRUCTIONS TO VISIBILITY.

* THESE STATIONS ARE NOT UNDER NWS QUALITY CONTROL. THEY ALSO MAY NOT
  REPORT WEATHER SUCH AS PRECIPITATION OR FOG.

ILZ001-002-007-009-015-016-024-201100-
NORTHWEST ILLINOIS

CITY           SKY/WX    TMP DP  RH WIND       PRES   REMARKS
MOLINE         CLOUDY    29  24  82 E5        30.25F WCI  24
STERLING*      CLOUDY    28  23  80 E3        30.26F
$$

ILZ003-004-008-010-011-017-018-201100-
NORTH CENTRAL ILLINOIS

CITY           SKY/WX    TMP DP  RH WIND       PRES   REMARKS
ROCKFORD       CLOUDY    26  22  84 CALM      30.29F
$$

ILZ005-006-012>014-019>023-201100-
NORTHEAST ILLINOIS

CITY           SKY/WX    TMP DP  RH WIND       PRES   REMARKS
CHICAGO-OHARE  CLOUDY    30  23  75 CALM      30.27S
CHICAGO-MIDWAY CLOUDY    32  25  75 SW5       30.28S WCI  27
AURORA         CLOUDY    27  23  85 CALM      30.28S FOG
WAUKEGAN       CLOUDY    27  22  81 W3        30.27S
DUPAGE AIRPORT CLOUDY    28  24  85 CALM      30.26F
WHEELING       CLOUDY    29  23  78 CALM      30.29S
NORTHERLY ISL    N/A     32  24  73 S6          N/A  WCI  26
$$

LMZ740>746-201100-
SOUTHERN LAKE MICHIGAN

STATION/POSITION SKY/WX   TEMP    WIND        PRES    VSBY  WAVE
                          AIR SEA DIR/SP/G                  HT/PER
                          (F)     (DEG/KT/KT) (MB)    (MI)  (FT/S)
WAUKEGAN HARBOR            28      CALM  /  3   N/A
HARRISON CRIB              32     200/  9/ 10   N/A
BURNHAM HARBOR             32     190/  4/  6   N/A
CALUMET HARBOR             31     190/  3/  4 1024.1F
$$

ILZ025>027-034>036-040-047-049-050-058-095>099-201100-
WEST-CENTRAL ILLINOIS

CITY           SKY/WX    TMP DP  RH WIND       PRES   REMARKS
QUINCY         CLOUDY    32  27  81 SE6       30.23S WCI  26
$$

ILZ028>032-037-038-041>044-048-051>054-059>061-201100-
CENTRAL ILLINOIS

CITY           SKY/WX    TMP DP  RH WIND       PRES   REMARKS
DECATUR        CLOUDY    30  26  85 SE3       30.27S
PEORIA         CLOUDY    29  23  78 E3        30.27S
SPRINGFIELD    CLOUDY    32  27  81 CALM      30.26F
TAYLORVILLE    NOT AVBL
$$

ILZ033-039-045-046-055>057-062-063-201100-
EAST-CENTRAL ILLINOIS

CITY           SKY/WX    TMP DP  RH WIND       PRES   REMARKS
CHAMPAIGN      MOCLDY    25  22  88 E3        30.27S FOG
MATTOON        CLOUDY    29  25  85 CALM      30.25F
$$

ILZ079-100>102-201100-
SOUTHWEST ILLINOIS

CITY           SKY/WX    TMP DP  RH WIND       PRES   REMARKS
BELLEVILLE     CLOUDY    34  30  87 E2        30.26F
CAHOKIA*       CLOUDY    35  29  78 SE3       30.27S
$$

ILZ064>066-069>071-074>076-080>082-084>086-088>090-092>094-201100-
SOUTH-CENTRAL ILLINOIS

CITY           SKY/WX    TMP DP  RH WIND       PRES   REMARKS
CARBONDALE     CLOUDY    33  28  81 CALM      30.27S
MT. VERNON     CLOUDY    32  25  74 CALM      30.27S
$$

ILZ067-068-072-073-078-083-087-091-201100-
SOUTHEAST ILLINOIS

CITY           SKY/WX    TMP DP  RH WIND       PRES   REMARKS
LAWRENCEVILLE  CLOUDY    30  27  88 CALM      30.29F
$$

ABBREVIATIONS USED IN REMARKS
   TC - TEMPERATURE IN CELSIUS
  WCI - WIND CHILL INDEX
   HX - HEAT INDEX
  VSB - VISIBILITY
$$



USA.gov is the U.S. government's official web portal to all federal, state and local government web resources and services.